Simultaneous Nadir Overpasses (SNOs) Predictions

Prediction of SNOs between GOES-16 and FY3D Satellite Orbit:

Table of predicted SNOs for the next 14.0 days since TLE Epoch: 7/6/2019
Index Date Time (GOES-16) GOES-16 Lat,Lon FY3D Lat,Lon Distance(km) Time Diff (sec)
1 07/06/2019 18:29:30 0.01, -75.20 0.14, -74.73 53.46 80
2 07/09/2019 06:29:26 -0.01, -75.21 0.02, -75.37 17.42 80
3 07/11/2019 18:32:12 0.01, -75.23 -0.15, -76.04 91.46 80
4 07/12/2019 18:15:57 0.01, -75.24 0.84, -71.46 430.80 80
5 07/14/2019 06:34:49 -0.02, -75.27 0.32, -76.67 160.76 80
6 07/15/2019 06:18:35 -0.01, -75.28 -0.72, -72.10 361.81 80
7 07/16/2019 18:37:35 0.01, -75.30 -0.44, -77.35 233.05 80
8 07/17/2019 18:21:20 0.01, -75.32 0.61, -72.78 290.00 80
9 07/19/2019 06:40:13 -0.01, -75.35 0.56, -77.99 300.30 80




NCC Satellite Simultaneous Nadir Overpasses (SNOs) Prediction Service
